Torna al catalogo

FENGYUN 1C DEB

AttivoSSO
NORAD 31819·DEBRIS·🇨🇳 China

Lanciato May 10, 1999 da Taiyuan Satellite Launch Center

Loading…

Prossimi Passaggi (prossime 24 ore)

TLE

In scadenzaSource: Space-Track

Epoca: Sep 9, 2026, 18:35 UTC

1 31819U 99025CHH 26252.77463409  .00000426  00000-0  17283-3 0  9990
2 31819  98.4939 242.4795 0085586 239.9709 119.2963 14.30633680  5527

Traccia FENGYUN 1C DEB in tempo reale con AllMySat

Download on the App Store